User: anonymous   Login
Location: Bruderhein
(53.8035°N, 112.9265°W)
Time: 13:08:04
(UTC+00:00)
Language:

Tiangong - Orbit

View from above orbital plane
View from above orbital plane
View from above satellite
View from above satellite

Ground track
Ground track

The orbit data is extracted from the following two-line orbital elements,

1 48274U 21035A   24170.18871858  .00034996  00000-0  39056-3 0  9993
2 48274  41.4684  77.0131 0004283 243.3110 116.7291 15.62059780179258
Epoch (UTC): 18 June 2024 04:31:45
Eccentricity: 0.0004283
inclination: 41.4684°
perigee height: 379 km
apogee height: 384 km
right ascension of ascending node: 77.0131°
argument of perigee: 243.3110°
revolutions per day: 15.62059780
mean anomaly at epoch: 116.7291°
orbit number at epoch: 17925

The dashed part of the orbit path shows where the satellite is in the earth's shadow,  

DLR